Terminal Aerodrome Forecast
Issued by NWS

Current Version | Previous Version | Graphics & Text | Print | Product List | Glossary On
Versions: 1 2 3 4 5 6 7 8 9 10 11 12 13 14 15 16 17 18
000
FTUS41 KRLX 231500 AAA
TAFCKB
TAF AMD
KCKB 231515Z 2315/2412 15006KT P6SM BKN045
     FM240500 VRB03KT 6SM BR OVC035
     FM240600 VRB03KT 5SM -SHRA BR OVC035
     FM241100 15008KT 3SM -SHRA BR OVC025=

USA.gov is the U.S. government's official web portal to all federal, state and local government web resources and services.